Flag for Canada Weather past 2 weeks in Trois-Rivieres, Quebec, Canada

Now
-6 °F

Frigid.


Feels Like: -21 °F
Forecast: -9 / 6 °F
Wind: 7 mph from Northwest

Location: Trois Rivieres

Current Time: Jan 31, 2015 at 10:12:29 AM

Latest Report: Jan 31, 2015 at 9:00 AM


Visibility: N/A

Pressure: 30.19 "Hg

Humidity: 62%

Dew point: -16 °F

Location of Trois-RivieresLocation

Historic Weather in Trois-Rivieres — Graph

°F

Trois-Rivieres temperature yesterday

Maximum temperature yesterday: 29 °F (at 4:00 AM)
Minimum temperature yesterday: 3 °F (at 11:00 PM)
Average temperature yesterday: 20 °F

Past Weeks' High & Low Weather Summary

 TemperatureHumidityPressure
High33 °F (Jan 19, 12:00 PM)100% (Jan 18, 11:00 PM)30.45 "Hg (Jan 18, 11:00 PM)
Low-15 °F (Jan 17, 8:00 AM)28% (Jan 28, 3:00 PM)29.24 "Hg (Jan 25, 12:00 AM)
Average11 °F77%29.99 "Hg
* Reported Jan 16 9:00 AM — Jan 31 9:00 AM, Trois-Rivieres, Weather by CustomWeather, © 2014

Note: Actual official high and low records may vary slightly from our data, if they occured in-between our weather recording intervals... More about our weather records

Advertising

Trois-Rivieres weather history for previous 24 hours

 ConditionsComfort  
Time TempWeatherWind HumidityBarometerVisibility
9:00 AM
Jan 31
-6 °FFrigid.7 mph62%30.19 "HgN/A
8:00 AM-9 °FFrigid.7 mph62%30.20 "HgN/A
7:00 AM-9 °FFrigid.8 mph63%30.19 "HgN/A
6:00 AM-8 °FFrigid.6 mph64%30.16 "HgN/A
5:00 AM-5 °FFrigid.8 mph60%30.16 "HgN/A
4:00 AM-5 °FFrigid.8 mph65%30.16 "HgN/A
3:00 AM-4 °FFrigid.8 mph68%30.15 "HgN/A
2:00 AM-2 °FFrigid.12 mph68%30.15 "HgN/A
1:00 AM0 °FFrigid.12 mph69%30.13 "HgN/A
12:00 AM1 °FFrigid.13 mph68%30.12 "HgN/A
11:00 PM
Jan 30
3 °FFrigid.12 mph70%30.11 "HgN/A
10:00 PM5 °FFrigid.15 mph68%30.09 "HgN/A
9:00 PM8 °FFrigid.14 mph67%30.09 "HgN/A
8:00 PM10 °FFrigid.12 mph68%30.06 "HgN/A
7:00 PM11 °FCold.13 mph74%30.04 "HgN/A
6:00 PM15 °FCold.13 mph66%30.01 "HgN/A
5:00 PM14 °FCold.14 mph70%29.98 "HgN/A
4:00 PM16 °FCold.14 mph72%29.96 "HgN/A
3:00 PM17 °FCold.12 mph74%29.92 "HgN/A
2:00 PM18 °FCold.15 mph78%29.88 "HgN/A
1:00 PM20 °FCold.16 mph79%29.86 "HgN/A
12:00 PM23 °FCold.15 mph81%29.86 "HgN/A
11:00 AM27 °FChilly.13 mph82%29.85 "HgN/A
10:00 AM27 °FChilly.9 mph93%29.83 "HgN/A
Weather by CustomWeather, © 2014

See weather overviewHow to use our weather pages